N8AUR Weather Reports


time (UTC)temp
F
wind
direction
speed
knots
gust
knots
rain 1hr
in
rain 24hr
in
rain mn
in
humidity
%
barometer
mb
20260502163032 44 313 1.7 0.0 0.00 0.00 0.00 48 1013.0
20260502161521 43 295 2.6 0.0 0.00 0.00 0.00 46 1013.1
20260502151517 42 359 4.3 0.0 0.00 0.00 0.00 47 1013.1
20260502123004 36 0 2.6 0.0 0.00 0.00 0.00 73 1013.1
20260502121503 36 3 0.9 0.0 0.00 0.00 0.00 77 1013.2
20260502114505 34 349 0.0 0.0 0.00 0.00 0.00 83 1013.1
20260502113004 34 0 0.0 0.0 0.00 0.00 0.00 86 1013.0
20260502111601 34 86 0.0 0.0 0.00 0.00 0.00 88 1012.9
20260502110103 34 86 0.0 0.0 0.00 0.00 0.00 88 1012.8
20260502104559 33 86 0.0 0.0 0.00 0.00 0.00 87 1012.7
20260502103103 33 86 0.0 0.0 0.00 0.00 0.00 86 1012.7
20260502101631 34 87 0.0 0.0 0.00 0.00 0.00 85 1012.6
20260502100117 34 87 0.0 0.0 0.00 0.00 0.00 84 1012.5
20260502070049 38 68 0.0 0.0 0.00 0.00 0.00 75 1011.8
20260502064542 38 68 0.0 0.0 0.00 0.00 0.00 73 1011.9
20260502063038 39 67 0.0 0.0 0.00 0.00 0.00 71 1011.9
20260502061536 39 65 0.0 0.0 0.00 0.00 0.00 64 1012.0
20260502060034 39 67 0.0 0.0 0.00 0.00 0.00 64 1012.0
20260502054536 39 76 0.0 0.0 0.00 0.00 0.00 69 1012.1
20260502053033 39 76 0.0 0.0 0.00 0.00 0.00 71 1012.1
20260502051534 39 76 0.0 0.0 0.00 0.00 0.00 70 1012.2
20260502050030 39 76 0.0 0.0 0.00 0.00 0.00 71 1012.1
20260502044529 39 76 0.0 0.0 0.00 0.00 0.00 71 1011.8
20260502043028 39 75 0.0 0.0 0.00 0.00 0.00 71 1011.7
20260502041531 39 75 0.0 0.0 0.00 0.00 0.00 71 1011.4
20260502040034 40 75 0.0 0.0 0.00 0.00 0.01 70 1011.5
20260502034523 40 75 0.0 0.0 0.00 0.00 0.01 68 1011.4
20260502033022 40 14 0.0 0.0 0.00 0.00 0.01 64 1011.4
20260502031523 40 16 2.6 0.0 0.00 0.00 0.01 62 1011.3
20260502030021 41 4 4.3 0.0 0.00 0.00 0.01 61 1011.3
20260502024535 41 9 4.3 0.0 0.00 0.00 0.01 61 1011.3
20260502023019 41 359 3.5 0.0 0.00 0.00 0.01 60 1011.2
20260502021516 42 310 0.0 0.0 0.00 0.00 0.01 58 1011.0
20260502020016 42 310 0.0 0.0 0.00 0.00 0.01 57 1010.9
20260502014525 42 310 0.0 0.0 0.00 0.00 0.01 57 1010.9
20260502013016 42 310 0.9 0.0 0.00 0.00 0.01 57 1010.7
20260502011513 42 308 3.5 0.0 0.00 0.00 0.01 56 1010.7
20260502010010 42 313 0.9 0.0 0.00 0.00 0.01 56 1010.6
20260502004510 42 323 0.0 0.0 0.00 0.00 0.01 57 1010.5
20260502003009 42 323 0.0 0.0 0.00 0.00 0.01 56 1010.4
20260502001509 43 303 0.0 0.0 0.00 0.00 0.01 56 1010.3
20260502000007 43 303 0.9 0.0 0.00 0.00 0.01 56 1010.2
20260501234511 43 325 1.7 0.0 0.00 0.00 0.01 57 1010.1
20260501233007 43 345 0.0 0.0 0.00 0.00 0.01 58 1010.1
20260501231505 44 11 0.0 0.0 0.00 0.00 0.01 58 1010.1
20260501230005 44 359 1.7 0.0 0.00 0.00 0.01 57 1010.2
20260501224511 43 314 2.6 0.0 0.00 0.00 0.01 57 1010.1
20260501223005 44 311 3.5 0.0 0.00 0.00 0.01 56 1010.2
20260501221506 44 1 1.7 0.0 0.00 0.00 0.01 56 1009.9
20260501220003 44 338 1.7 0.0 0.00 0.00 0.01 57 1009.8
20260501214501 44 333 1.7 0.0 0.00 0.00 0.01 58 1009.7
20260501213001 45 338 0.0 0.0 0.00 0.00 0.01 53 1009.6
20260501211604 46 0 1.7 0.0 0.00 0.00 0.01 52 1009.2
20260501210100 46 326 1.7 0.0 0.00 0.00 0.01 52 1009.0
20260501204600 46 328 3.5 0.0 0.00 0.00 0.01 52 1009.1
20260501203107 45 328 0.9 0.0 0.00 0.00 0.01 54 1009.1
20260501201606 46 327 0.0 0.0 0.00 0.00 0.01 54 1009.0
20260501200057 47 304 2.6 0.0 0.00 0.00 0.01 50 1009.0
20260501194557 46 359 4.3 0.0 0.00 0.00 0.01 52 1009.0
20260501193056 46 338 2.6 0.0 0.00 0.00 0.01 52 1009.0
20260501191556 47 9 2.6 0.0 0.00 0.00 0.01 53 1008.9
20260501190054 45 27 3.5 0.0 0.00 0.00 0.01 54 1008.8
20260501184608 45 2 3.5 0.0 0.00 0.00 0.01 55 1008.9
20260501183057 46 32 4.3 0.0 0.00 0.00 0.01 54 1008.7
20260501181553 46 357 3.5 0.0 0.00 0.00 0.01 56 1008.7
20260501180052 46 36 4.3 0.0 0.00 0.00 0.01 54 1008.4
20260501174555 47 24 5.2 0.0 0.00 0.00 0.01 56 1008.4
20260501173111 47 340 3.5 0.0 0.00 0.00 0.01 53 1008.4